Regional Weather Roundup
Issued by NWS

Home | Current Version | Previous Version | Text Only | Print | Product List | Glossary Off
Versions: 1 2 3 4 5 6 7 8 9 10 11 12 13 14 15 16 17 18 19 20 21 22 23 24 25 26 27 28 29 30 31 32 33 34 35 36 37 38 39 40 41 42 43 44 45 46 47 48 49 50

132
ASUS45 KSLC 102110
RWRUT

UTAH REGIONAL WEATHER ROUNDUP
NATIONAL WEATHER SERVICE SALT LAKE CITY UT
200 PM MST WED FEB 10 2016

UTZ001>011-023>025-102200-

NORTHERN UTAH

CITY           SKY/WX    TMP DP  RH WIND       PRES   REMARKS
BRIGHAM CITY   CLOUDY    29  27  94 NW5       30.49S WCI  24
HILL AFB       NOT AVBL
LOGAN          NOT AVBL
OGDEN          NOT AVBL
PROVO AIRPORT  FOG       25  21  86 CALM      30.47S VSB 1/2
SALT LAKE CITY CLOUDY    30  27  88 S5        30.45F FOG     WCI  25
VERNAL         NOT AVBL
WENDOVER       CLOUDY    30  27  86 CALM      30.46
HEBER CITY     SUNNY     32  21  64 CALM      30.39S
WEST JORDAN    CLOUDY    30  28  93 CALM      30.45F

$$

UTZ012>022-026-027-102200-

SOUTHERN/CENTRAL UTAH

CITY           SKY/WX    TMP DP  RH WIND       PRES   REMARKS
BLANDING       SUNNY     42  28  58 CALM      30.46F
CEDAR CITY     NOT AVBL
DELTA          MOSUNNY   22  21  97 SE5       30.44F WCI  16
HANKSVILLE     MOSUNNY   43  30  61 CALM      30.42F
MILFORD        NOT AVBL
MOAB/CYNLANDS  NOT AVBL
PRICE          NOT AVBL
ST GEORGE      CLEAR     57  27  30 CALM      30.33
KANAB          SUNNY     64  21  19 CALM      30.38F

$$

REGIONAL REPORTS     COLORADO/ARIZONA

CITY           SKY/WX    TMP DP  RH WIND       PRES   REMARKS
CRAIG, CO      MIX PCPN  27  19  72 SW5       30.35F WCI  22
GRAND JUNCTION SUNNY     37  28  70 NW7       30.39F WCI  32
RIFLE          SUNNY     37  19  48 CALM      30.38F
MONTROSE       SUNNY     43  23  45 CALM      30.37F
CORTEZ         SUNNY     48  22  35 CALM      30.39F
PAGE, AZ       MOSUNNY   50  29  44 VRB3      30.38F
GRAND CANYON   MOSUNNY   64   6  10 W6        30.40F
KINGMAN        SUNNY     69  21  16 N6        30.28F
FLAGSTAFF      MOSUNNY   59   5  11 CALM      30.40F

$$

REGIONAL REPORTS    NEVADA/IDAHO/WYOMING

CITY           SKY/WX    TMP DP  RH WIND       PRES   REMARKS
LAS VEGAS, NV  MOSUNNY   68  25  19 E3        30.23F
ELY            NOT AVBL
ELKO           SUNNY     27  17  66 E3        30.45F
POCATELLO, ID  NOT AVBL
EVANSTON, WY   NOT AVBL
ROCK SPRINGS   NOT AVBL
KEMMERER       CLOUDY    36  21  55 W7        30.36F WCI  30

$$




USA.gov is the U.S. government's official web portal to all federal, state and local government web resources and services.